Radiation Dose at Monitoring Post of Fukushima Daini Nuclear Power Station
Date,Time,MP-1(microSv/h),MP-2(microSv/h),MP-3(microSv/h),MP-4(microSv/h),MP-5(microSv/h),MP-6(microSv/h),MP-7(microSv/h),Wind Direction,Wind Velocity(m/s),Rain
2022/04/29,00:00,0.155,0.146,0.229,0.222,0.223,0.124,0.079,south,3.2,No
2022/04/29,00:10,0.155,0.145,0.228,0.222,0.222,0.124,0.080,south,3.3,No
2022/04/29,00:20,0.156,0.145,0.229,0.221,0.222,0.124,0.079,south,3.6,No
2022/04/29,00:30,0.155,0.146,0.228,0.223,0.222,0.125,0.079,south,3.5,No
2022/04/29,00:40,0.155,0.146,0.229,0.222,0.223,0.125,0.079,south,2.8,No
2022/04/29,00:50,0.155,0.145,0.229,0.221,0.222,0.124,0.079,south,2.8,No
2022/04/29,01:00,0.156,0.145,0.228,0.221,0.223,0.124,0.079,south,1.5,No
2022/04/29,01:10,0.155,0.145,0.229,0.222,0.222,0.123,0.079,south,1.8,No
2022/04/29,01:20,0.155,0.145,0.229,0.220,0.223,0.123,0.079,south,2.1,No
2022/04/29,01:30,0.156,0.146,0.229,0.222,0.223,0.123,0.079,south-southwest,2.0,No
2022/04/29,01:40,0.155,0.145,0.229,0.221,0.223,0.123,0.078,south-southwest,1.9,No
2022/04/29,01:50,0.155,0.145,0.228,0.222,0.223,0.123,0.079,south-southwest,1.9,No
2022/04/29,02:00,0.156,0.145,0.229,0.222,0.222,0.124,0.079,south,1.7,No
2022/04/29,02:10,0.155,0.145,0.228,0.220,0.222,0.124,0.079,south-southwest,1.6,No
2022/04/29,02:20,0.155,0.145,0.228,0.221,0.223,0.123,0.079,southwest,1.3,No
2022/04/29,02:30,0.155,0.145,0.228,0.221,0.222,0.124,0.079,west-southwest,0.6,No
2022/04/29,02:40,0.156,0.144,0.228,0.222,0.222,0.124,0.079,north-northwest,0.8,No
2022/04/29,02:50,0.154,0.146,0.229,0.222,0.223,0.125,0.079,north-northwest,1.3,No
2022/04/29,03:00,0.156,0.146,0.229,0.222,0.222,0.124,0.079,north-northwest,2.1,No
2022/04/29,03:10,0.155,0.145,0.229,0.222,0.222,0.123,0.079,north-northwest,3.7,No
2022/04/29,03:20,0.155,0.146,0.229,0.222,0.223,0.124,0.079,north-northwest,4.4,No
2022/04/29,03:30,0.156,0.146,0.229,0.222,0.222,0.124,0.080,north-northwest,4.8,No
2022/04/29,03:40,0.156,0.145,0.228,0.221,0.223,0.124,0.079,north-northwest,4.8,No
2022/04/29,03:50,0.155,0.146,0.228,0.222,0.223,0.124,0.079,north-northwest,4.9,No
2022/04/29,04:00,0.156,0.146,0.229,0.221,0.222,0.124,0.079,north,6.4,No
2022/04/29,04:10,0.155,0.147,0.230,0.222,0.224,0.124,0.079,north-northwest,7.2,No
2022/04/29,04:20,0.156,0.145,0.229,0.221,0.223,0.124,0.080,north-northwest,8.2,No
2022/04/29,04:30,0.156,0.146,0.229,0.222,0.223,0.124,0.079,north-northwest,7.7,No
2022/04/29,04:40,0.156,0.146,0.228,0.222,0.222,0.124,0.079,north-northwest,7.8,No
2022/04/29,04:50,0.155,0.145,0.228,0.221,0.223,0.124,0.079,north-northwest,8.2,No
2022/04/29,05:00,0.156,0.145,0.228,0.221,0.223,0.124,0.079,northwest,8.1,No
2022/04/29,05:10,0.155,0.145,0.228,0.221,0.222,0.123,0.080,north-northwest,7.6,No
2022/04/29,05:20,0.155,0.145,0.229,0.221,0.224,0.124,0.079,northwest,7.6,No
2022/04/29,05:30,0.156,0.146,0.229,0.221,0.222,0.125,0.079,north-northwest,7.1,No
2022/04/29,05:40,0.156,0.145,0.229,0.221,0.222,0.124,0.079,north-northwest,7.9,No
2022/04/29,05:50,0.156,0.146,0.228,0.221,0.223,0.124,0.079,north-northwest,7.7,No
2022/04/29,06:00,0.156,0.145,0.229,0.222,0.222,0.124,0.079,north-northwest,7.0,No
2022/04/29,06:10,0.155,0.146,0.229,0.221,0.223,0.123,0.079,north-northwest,7.6,No
2022/04/29,06:20,0.156,0.145,0.228,0.221,0.222,0.123,0.079,north-northwest,6.8,No
2022/04/29,06:30,0.156,0.145,0.229,0.221,0.222,0.123,0.079,north-northwest,7.2,No
2022/04/29,06:40,0.156,0.146,0.228,0.221,0.224,0.124,0.078,north-northwest,7.1,No
2022/04/29,06:50,0.156,0.145,0.228,0.221,0.222,0.123,0.079,north-northwest,7.3,No
2022/04/29,07:00,0.156,0.145,0.228,0.220,0.223,0.124,0.078,north-northwest,6.3,No
2022/04/29,07:10,0.155,0.144,0.227,0.221,0.223,0.122,0.079,north-northwest,5.9,No
2022/04/29,07:20,0.155,0.146,0.228,0.222,0.222,0.125,0.078,north-northwest,5.0,No
2022/04/29,07:30,0.155,0.146,0.227,0.221,0.223,0.123,0.079,north-northwest,5.5,No
2022/04/29,07:40,0.155,0.145,0.228,0.221,0.221,0.123,0.079,north-northwest,5.7,No
2022/04/29,07:50,0.156,0.145,0.228,0.220,0.223,0.123,0.078,north-northwest,6.0,No
2022/04/29,08:00,0.154,0.145,0.228,0.221,0.222,0.123,0.079,north-northwest,6.4,No
2022/04/29,08:10,0.155,0.144,0.229,0.220,0.222,0.123,0.079,north-northwest,6.5,No
2022/04/29,08:20,0.154,0.145,0.227,0.221,0.222,0.124,0.079,north-northwest,7.0,No
2022/04/29,08:30,0.156,0.144,0.229,0.219,0.224,0.123,0.078,north-northwest,7.0,Yes
2022/04/29,08:40,0.156,0.145,0.228,0.220,0.222,0.123,0.079,north-northwest,7.1,No
2022/04/29,08:50,0.155,0.145,0.228,0.221,0.223,0.123,0.079,north-northwest,7.2,No
2022/04/29,09:00,0.155,0.145,0.228,0.221,0.221,0.123,0.079,north-northwest,6.7,No
2022/04/29,09:10,0.155,0.145,0.228,0.222,0.223,0.124,0.078,north-northwest,6.5,No
2022/04/29,09:20,0.155,0.146,0.229,0.220,0.222,0.123,0.079,north-northwest,5.8,No
2022/04/29,09:30,0.155,0.145,0.227,0.222,0.223,0.124,0.079,north-northwest,5.6,No
2022/04/29,09:40,0.155,0.145,0.229,0.221,0.222,0.122,0.079,north-northwest,6.3,No
2022/04/29,09:50,0.156,0.146,0.230,0.222,0.223,0.124,0.079,north-northwest,5.5,No
2022/04/29,10:00,0.155,0.145,0.229,0.221,0.222,0.124,0.079,north,5.7,No
2022/04/29,10:10,0.156,0.145,0.229,0.221,0.223,0.124,0.079,north,6.4,No
2022/04/29,10:20,0.156,0.145,0.229,0.222,0.223,0.123,0.078,north,7.1,No
2022/04/29,10:30,0.156,0.145,0.230,0.222,0.222,0.123,0.079,north-northwest,5.7,No
2022/04/29,10:40,0.157,0.145,0.228,0.222,0.222,0.124,0.079,north-northwest,5.6,No
2022/04/29,10:50,0.156,0.145,0.229,0.220,0.223,0.123,0.079,north-northwest,6.3,No
2022/04/29,11:00,0.156,0.146,0.228,0.220,0.223,0.123,0.078,north-northwest,6.1,No
2022/04/29,11:10,0.156,0.146,0.229,0.221,0.222,0.123,0.079,north-northwest,4.0,No
2022/04/29,11:20,0.155,0.146,0.229,0.222,0.223,0.124,0.079,north-northwest,5.0,No
2022/04/29,11:30,0.157,0.146,0.228,0.222,0.222,0.124,0.078,north-northwest,3.4,No
2022/04/29,11:40,0.157,0.146,0.228,0.220,0.224,0.124,0.078,north-northeast,4.9,No
2022/04/29,11:50,0.155,0.145,0.228,0.222,0.221,0.124,0.078,north,6.3,No
2022/04/29,12:00,0.156,0.145,0.228,0.221,0.224,0.123,0.078,north-northwest,5.5,No
2022/04/29,12:10,0.156,0.144,0.227,0.221,0.221,0.123,0.079,north-northwest,6.7,No
2022/04/29,12:20,0.156,0.146,0.228,0.220,0.223,0.124,0.079,north-northwest,7.3,Yes
2022/04/29,12:30,0.156,0.145,0.229,0.223,0.222,0.123,0.079,north-northwest,7.8,Yes
2022/04/29,12:40,0.155,0.145,0.229,0.221,0.223,0.123,0.078,north-northwest,7.1,Yes
2022/04/29,12:50,0.156,0.146,0.229,0.222,0.223,0.124,0.079,north-northwest,7.2,Yes
2022/04/29,13:00,0.155,0.145,0.230,0.222,0.223,0.123,0.080,north-northwest,7.0,Yes
2022/04/29,13:10,0.156,0.146,0.229,0.222,0.224,0.124,0.079,north-northwest,7.6,Yes
2022/04/29,13:20,0.155,0.146,0.230,0.222,0.223,0.124,0.079,north-northwest,8.1,Yes
2022/04/29,13:30,0.155,0.146,0.230,0.222,0.225,0.125,0.079,north-northwest,8.1,Yes
2022/04/29,13:40,0.157,0.146,0.229,0.222,0.223,0.125,0.079,north-northwest,7.6,Yes
2022/04/29,13:50,0.157,0.146,0.230,0.222,0.224,0.124,0.080,north-northwest,8.1,Yes
2022/04/29,14:00,0.156,0.146,0.231,0.222,0.225,0.124,0.079,north-northwest,7.6,Yes
2022/04/29,14:10,0.157,0.147,0.230,0.222,0.223,0.125,0.081,north-northwest,7.0,Yes
2022/04/29,14:20,0.157,0.147,0.231,0.224,0.226,0.126,0.081,north-northwest,8.1,Yes
2022/04/29,14:30,0.157,0.148,0.232,0.222,0.225,0.125,0.082,north-northwest,7.8,Yes
2022/04/29,14:40,0.159,0.149,0.231,0.224,0.225,0.126,0.082,north-northwest,8.6,Yes
2022/04/29,14:50,0.159,0.149,0.231,0.225,0.226,0.129,0.083,-,CALM,Yes
2022/04/29,15:00,0.159,0.151,0.233,0.225,0.225,0.130,0.084,north-northwest,7.9,Yes
2022/04/29,15:10,0.161,0.152,0.232,0.224,0.227,0.131,0.085,north-northwest,7.5,Yes
2022/04/29,15:20,0.160,0.152,0.231,0.225,0.226,0.131,0.086,north-northwest,8.8,Yes
2022/04/29,15:30,0.162,0.152,0.232,0.225,0.227,0.132,0.086,north-northwest,9.0,Yes
2022/04/29,15:40,0.162,0.152,0.230,0.224,0.227,0.132,0.087,north-northwest,10.6,Yes
2022/04/29,15:50,0.161,0.152,0.232,0.224,0.227,0.132,0.087,northwest,10.4,Yes
2022/04/29,16:00,0.161,0.152,0.230,0.223,0.227,0.132,0.088,northwest,10.3,Yes
2022/04/29,16:10,0.160,0.152,0.231,0.224,0.227,0.132,0.087,north-northwest,8.6,Yes
2022/04/29,16:20,0.160,0.153,0.230,0.223,0.226,0.131,0.086,north-northwest,9.8,Yes
2022/04/29,16:30,0.160,0.151,0.230,0.222,0.226,0.132,0.087,northwest,10.1,Yes
2022/04/29,16:40,0.160,0.152,0.229,0.221,0.225,0.131,0.087,north-northwest,13.6,Yes
2022/04/29,16:50,0.158,0.151,0.229,0.221,0.226,0.129,0.087,north-northwest,10.1,Yes
2022/04/29,17:00,0.159,0.152,0.226,0.220,0.225,0.131,0.087,north-northwest,10.6,Yes
2022/04/29,17:10,0.157,0.151,0.227,0.219,0.225,0.130,0.087,northwest,10.1,Yes
2022/04/29,17:20,0.159,0.150,0.226,0.220,0.225,0.129,0.087,north-northwest,8.2,Yes
2022/04/29,17:30,0.158,0.150,0.227,0.220,0.224,0.130,0.087,north-northwest,9.5,Yes
2022/04/29,17:40,0.158,0.151,0.226,0.219,0.225,0.129,0.086,-,CALM,Yes
2022/04/29,17:50,0.158,0.151,0.225,0.217,0.226,0.130,0.088,-,CALM,Yes
2022/04/29,18:00,0.157,0.152,0.226,0.218,0.224,0.129,0.088,north-northwest,9.2,Yes
2022/04/29,18:10,0.159,0.151,0.226,0.218,0.224,0.130,0.088,north,8.8,Yes
2022/04/29,18:20,0.159,0.151,0.227,0.218,0.224,0.129,0.089,-,CALM,Yes
2022/04/29,18:30,0.158,0.152,0.226,0.218,0.225,0.130,0.089,north,12.0,Yes
2022/04/29,18:40,0.158,0.152,0.225,0.217,0.226,0.130,0.090,-,CALM,Yes
2022/04/29,18:50,0.157,0.152,0.226,0.217,0.225,0.130,0.090,-,CALM,Yes
2022/04/29,19:00,0.156,0.152,0.225,0.218,0.226,0.131,0.090,-,CALM,Yes
2022/04/29,19:10,0.155,0.153,0.224,0.218,0.225,0.131,0.091,-,CALM,Yes
2022/04/29,19:20,0.155,0.153,0.224,0.217,0.226,0.131,0.092,-,CALM,Yes
2022/04/29,19:30,0.155,0.153,0.225,0.218,0.226,0.133,0.091,-,CALM,Yes
2022/04/29,19:40,0.154,0.154,0.225,0.218,0.226,0.132,0.091,-,CALM,Yes
2022/04/29,19:50,0.154,0.153,0.224,0.218,0.227,0.131,0.091,-,CALM,Yes
2022/04/29,20:00,0.153,0.153,0.224,0.217,0.225,0.131,0.090,-,CALM,Yes
2022/04/29,20:10,0.152,0.152,0.224,0.218,0.227,0.131,0.090,-,CALM,Yes
2022/04/29,20:20,0.153,0.151,0.222,0.217,0.225,0.130,0.089,north,12.6,Yes
2022/04/29,20:30,0.152,0.151,0.223,0.217,0.225,0.130,0.089,-,CALM,Yes
2022/04/29,20:40,0.153,0.152,0.223,0.217,0.223,0.129,0.089,northwest,9.3,Yes
2022/04/29,20:50,0.153,0.150,0.223,0.216,0.222,0.128,0.087,north-northwest,13.1,Yes
2022/04/29,21:00,0.152,0.148,0.222,0.217,0.225,0.128,0.086,northwest,12.6,Yes
2022/04/29,21:10,0.151,0.148,0.222,0.217,0.222,0.127,0.086,northwest,11.7,Yes
2022/04/29,21:20,0.151,0.147,0.222,0.215,0.222,0.125,0.085,north-northwest,15.8,Yes
2022/04/29,21:30,0.151,0.147,0.221,0.214,0.222,0.124,0.085,northwest,13.3,Yes
2022/04/29,21:40,0.151,0.146,0.221,0.213,0.221,0.124,0.083,northwest,15.5,Yes
2022/04/29,21:50,0.151,0.145,0.220,0.213,0.220,0.123,0.083,northwest,12.5,Yes
2022/04/29,22:00,0.150,0.145,0.219,0.212,0.221,0.123,0.083,northwest,12.8,Yes
2022/04/29,22:10,0.150,0.144,0.220,0.214,0.219,0.121,0.082,northwest,11.2,Yes
2022/04/29,22:20,0.149,0.144,0.220,0.212,0.220,0.122,0.081,northwest,13.7,Yes
2022/04/29,22:30,0.149,0.143,0.218,0.211,0.219,0.122,0.081,north-northwest,13.9,Yes
2022/04/29,22:40,0.148,0.142,0.217,0.211,0.219,0.120,0.081,north-northwest,15.4,Yes
2022/04/29,22:50,0.150,0.143,0.217,0.211,0.220,0.120,0.081,northwest,12.3,Yes
2022/04/29,23:00,0.150,0.142,0.218,0.211,0.219,0.121,0.080,northwest,14.7,Yes
2022/04/29,23:10,0.150,0.142,0.218,0.212,0.218,0.121,0.080,northwest,11.5,Yes
2022/04/29,23:20,0.149,0.143,0.217,0.211,0.219,0.121,0.081,northwest,13.1,Yes
2022/04/29,23:30,0.150,0.143,0.218,0.210,0.219,0.121,0.079,northwest,12.5,Yes
2022/04/29,23:40,0.150,0.143,0.217,0.211,0.219,0.121,0.079,northwest,10.3,Yes
2022/04/29,23:50,0.150,0.143,0.217,0.212,0.218,0.120,0.080,northwest,14.9,Yes
